Voltar ao catálogo

STARLINK-32941

AtivoComunicaçõesVLEO
NORAD 63119·PAYLOAD·🇺🇸 United States

Lançado Feb 27, 2025 de Cape Canaveral Space Force Station

Loading…

Próximas Passagens (próximas 24 horas)

TLE

AtualizadoSource: CelesTrak SupGP

Época: Sep 15, 2026, 02:24 UTC

1 63119C 25039R   26258.10048611  .00010225  00000+0  37053-3 0  2581
2 63119  43.0031  11.7167 0001591 261.3911 183.1362 15.27557308    13

Acompanhe STARLINK-32941 em tempo real com AllMySat

Download on the App Store